GW3250 Weather Reports


Display with metric or nautical units.
time (UTC)temp
F
wind
direction
speed
MPH
gust
MPH
rain 1hr
in
rain 24hr
in
rain mn
in
humidity
%
barometer
mb
20260510033427 49 152 0.0 0.0 0.00 0.39 0.39 99 1007.9
20260510032924 48 152 0.0 0.0 0.00 0.39 0.39 99 1008.1
20260510032421 49 152 0.0 0.0 0.00 0.39 0.39 99 1008.0
20260510031916 49 152 1.0 1.0 0.00 0.39 0.39 99 1007.7
20260510031413 49 152 1.0 1.0 0.00 0.39 0.39 99 1008.0
20260510030912 49 153 0.0 0.0 0.00 0.39 0.39 99 1007.8
20260510030409 49 153 0.0 0.0 0.00 0.39 0.39 99 1007.9
20260510025907 48 153 0.0 0.0 0.00 0.39 0.39 99 1008.0
20260510025404 48 153 0.0 0.0 0.00 0.39 0.39 99 1007.9
20260510024901 49 153 0.0 0.0 0.00 0.39 0.39 99 1007.8
20260510024357 49 153 0.0 0.0 0.00 0.39 0.39 99 1008.1
20260510023853 49 153 0.0 0.0 0.00 0.39 0.39 99 1008.1
20260510023350 49 153 0.0 0.0 0.00 0.39 0.39 99 1008.2
20260510022848 49 153 0.0 1.0 0.00 0.39 0.39 99 1008.0
20260510022347 50 153 1.0 1.0 0.00 0.39 0.39 99 1008.1
20260510021845 50 153 0.0 0.0 0.00 0.39 0.39 99 1007.9
20260510021344 50 153 0.0 1.0 0.00 0.39 0.39 99 1008.0
20260510020840 49 153 1.0 1.0 0.00 0.39 0.39 99 1008.0
20260510020335 49 153 0.0 0.0 0.00 0.39 0.39 99 1007.9
20260510015831 49 153 0.0 1.0 0.00 0.39 0.39 99 1007.7
20260510015327 49 163 0.0 0.0 0.00 0.39 0.39 99 1008.0
20260510014822 49 163 0.0 1.0 0.00 0.39 0.39 99 1007.9
20260510014320 50 169 0.0 0.0 0.00 0.39 0.39 99 1007.8
20260510013816 49 171 1.0 1.0 0.00 0.39 0.39 99 1007.8
20260510013311 49 186 1.0 1.0 0.00 0.39 0.39 99 1007.8
20260510012806 50 153 0.0 0.0 0.00 0.39 0.39 99 1007.6
20260510012300 50 127 1.0 1.0 0.00 0.39 0.39 99 1007.7
20260510011755 50 157 1.0 1.0 0.00 0.39 0.39 99 1007.4
20260510011251 49 176 0.0 0.0 0.00 0.39 0.39 99 1007.6
20260510010748 49 177 0.0 0.0 0.00 0.39 0.39 99 1007.7
20260510010244 50 177 0.0 0.0 0.00 0.39 0.39 99 1007.5
20260510005742 50 177 0.0 1.0 0.00 0.39 0.39 99 1007.9
20260510005238 50 169 0.0 0.0 0.00 0.39 0.39 99 1007.5
20260510004736 51 103 1.0 1.0 0.00 0.39 0.39 99 1007.4
20260510004233 51 103 1.0 2.0 0.00 0.39 0.39 99 1007.4
20260510003731 50 128 2.0 3.0 0.00 0.39 0.39 99 1007.6
20260510003227 51 177 0.0 0.0 0.00 0.39 0.39 99 1007.4
20260510002725 51 185 0.0 0.0 0.00 0.39 0.39 99 1007.4
20260510002223 51 128 0.0 0.0 0.00 0.39 0.39 99 1007.3
20260510001720 51 165 0.0 0.0 0.00 0.39 0.39 99 1007.2
20260510001219 51 165 0.0 1.0 0.00 0.39 0.39 99 1007.0
20260510000714 51 165 0.0 1.0 0.00 0.39 0.39 99 1007.0
20260510000211 51 165 0.0 1.0 0.00 0.39 0.39 99 1007.2
20260509235708 51 165 0.0 1.0 0.00 0.39 0.39 99 1007.3
20260509235204 51 171 0.0 0.0 0.00 0.39 0.39 99 1006.9
20260509234701 52 177 1.0 1.0 0.00 0.39 0.39 99 1006.8
20260509234158 52 157 0.0 1.0 0.00 0.39 0.39 99 1006.7
20260509233656 52 133 1.0 1.0 0.00 0.39 0.39 99 1006.5
20260509233153 52 208 1.0 1.0 0.00 0.39 0.39 99 1006.4
20260509232649 52 214 0.0 0.0 0.00 0.39 0.39 99 1006.1
20260509232146 52 216 0.0 1.0 0.00 0.39 0.39 99 1006.2
20260509231643 52 216 0.0 0.0 0.00 0.39 0.39 99 1006.2
20260509231140 52 216 0.0 0.0 0.00 0.39 0.39 99 1006.2
20260509230637 53 216 0.0 0.0 0.00 0.39 0.39 99 1006.2
20260509230134 53 216 1.0 1.0 0.00 0.39 0.39 99 1006.4
20260509225630 53 216 0.0 1.0 0.00 0.39 0.39 99 1006.5
20260509225125 53 216 1.0 1.0 0.00 0.39 0.39 99 1006.4
20260509224621 53 216 1.0 1.0 0.00 0.39 0.39 99 1006.5
20260509224118 54 216 1.0 2.0 0.00 0.39 0.39 99 1006.3
20260509223615 54 216 0.0 1.0 0.00 0.39 0.39 99 1006.3
20260509223113 54 216 1.0 1.0 0.00 0.39 0.39 99 1006.7
20260509222608 54 217 0.0 0.0 0.00 0.39 0.39 99 1006.7
20260509222105 53 216 0.0 0.0 0.00 0.39 0.39 99 1006.6
20260509221600 53 217 0.0 1.0 0.00 0.39 0.39 99 1006.6
20260509221056 53 217 0.0 0.0 0.00 0.39 0.39 99 1006.7
20260509220552 53 217 0.0 0.0 0.00 0.39 0.39 99 1006.6
20260509220049 53 209 0.0 0.0 0.00 0.39 0.39 99 1006.5
20260509215544 53 195 1.0 1.0 0.00 0.39 0.39 99 1006.7
20260509215042 53 191 1.0 1.0 0.00 0.39 0.39 99 1006.7
20260509214539 53 198 1.0 1.0 0.00 0.39 0.39 99 1006.9
20260509214036 53 193 0.0 1.0 0.00 0.39 0.39 99 1006.8
20260509213532 53 190 0.0 0.0 0.00 0.39 0.39 99 1006.9
20260509213029 53 189 1.0 1.0 0.00 0.39 0.39 99 1006.9
20260509212526 53 189 0.0 1.0 0.00 0.39 0.39 99 1007.0
20260509212023 53 174 0.0 1.0 0.00 0.39 0.39 99 1007.0
20260509211518 52 169 0.0 0.0 0.00 0.39 0.39 99 1006.8
20260509211016 52 169 0.0 0.0 0.00 0.39 0.39 99 1006.8
20260509210512 51 169 0.0 0.0 0.00 0.39 0.39 99 1006.8
20260509210009 51 169 0.0 1.0 0.00 0.39 0.39 99 1006.8
20260509205503 52 168 0.0 1.0 0.00 0.39 0.39 99 1007.3
20260509204958 51 192 0.0 1.0 0.07 0.39 0.39 99 1007.4
20260509204455 51 204 1.0 1.0 0.07 0.39 0.39 99 1007.4
20260509203951 51 204 1.0 1.0 0.07 0.38 0.38 99 1007.4
20260509203447 51 204 0.0 1.0 0.07 0.38 0.38 99 1007.5
20260509202945 52 204 0.0 1.0 0.00 0.37 0.37 99 1007.2
20260509202441 51 204 0.0 0.0 0.00 0.37 0.37 99 1007.3
20260509201935 52 204 1.0 1.0 0.00 0.37 0.37 99 1007.2
20260509201426 51 204 1.0 1.0 0.05 0.37 0.37 99 1007.4
20260509200923 52 204 1.0 2.0 0.05 0.37 0.37 99 1007.3
20260509200422 52 204 1.0 1.0 0.00 0.36 0.36 99 1007.8
20260509195919 51 204 2.0 2.0 0.00 0.36 0.36 99 1007.7
20260509195415 51 201 1.0 2.0 0.00 0.36 0.36 99 1007.8
20260509194909 51 208 1.0 1.0 0.00 0.36 0.36 99 1008.0
20260509194405 51 208 0.0 0.0 0.07 0.36 0.36 99 1008.0
20260509193901 51 208 1.0 1.0 0.07 0.36 0.36 99 1007.9
20260509193356 51 207 0.0 0.0 0.05 0.35 0.35 99 1008.0
20260509192852 51 211 2.0 2.0 0.05 0.35 0.35 99 1008.3
20260509192348 50 211 2.0 2.0 0.00 0.34 0.34 99 1008.3
20260509191844 51 207 0.0 0.0 0.07 0.34 0.34 99 1008.2
20260509191340 50 206 1.0 1.0 0.12 0.34 0.34 99 1008.3
20260509190836 51 185 3.0 4.0 0.17 0.33 0.33 99 1008.3
20260509190333 51 201 1.0 1.0 0.19 0.32 0.32 99 1008.4
20260509185830 51 254 0.0 1.0 0.17 0.31 0.31 99 1008.5
20260509185327 51 212 2.0 2.0 0.12 0.29 0.29 99 1008.3
20260509184825 51 210 1.0 2.0 0.07 0.28 0.28 99 1008.2
20260509184321 51 215 3.0 3.0 0.05 0.27 0.27 99 1008.4
20260509183817 51 185 1.0 1.0 0.12 0.27 0.27 99 1008.5
20260509183307 51 188 2.0 2.0 0.14 0.26 0.26 99 1008.6
20260509182803 51 184 2.0 2.0 0.14 0.26 0.26 99 1008.4
20260509182300 51 140 3.0 4.0 0.12 0.24 0.24 99 1008.1
20260509181757 52 204 1.0 1.0 0.12 0.23 0.23 99 1008.7
20260509181255 52 202 1.0 1.0 0.05 0.22 0.22 99 1008.7
20260509180752 52 202 1.0 1.0 0.12 0.22 0.22 99 1008.5
20260509180248 52 220 3.0 6.0 0.07 0.21 0.21 99 1008.5
20260509175744 52 195 1.0 2.0 0.05 0.20 0.20 99 1008.6
20260509175241 52 232 1.0 2.0 0.05 0.20 0.20 99 1008.6
20260509174737 52 173 0.0 1.0 0.00 0.19 0.19 99 1008.5
20260509174233 52 184 1.0 1.0 0.00 0.19 0.19 99 1008.5
20260509173729 52 198 1.0 1.0 0.00 0.19 0.19 99 1008.3
20260509173225 52 196 0.0 1.0 0.07 0.19 0.19 99 1008.3
20260509172721 51 198 1.0 1.0 0.07 0.19 0.19 99 1008.3
20260509172217 51 202 1.0 2.0 0.00 0.18 0.18 99 1008.5
20260509171713 51 213 1.0 2.0 0.00 0.18 0.18 99 1008.3
20260509171210 51 194 1.0 1.0 0.05 0.18 0.18 99 1008.4
20260509170707 51 161 0.0 0.0 0.12 0.18 0.18 99 1008.3
20260509170202 51 182 1.0 1.0 0.07 0.17 0.17 99 1008.4
20260509165701 51 225 2.0 3.0 0.07 0.17 0.17 99 1008.5
20260509165156 51 170 1.0 1.0 0.00 0.16 0.16 99 1008.5
20260509164652 51 185 1.0 1.0 0.00 0.16 0.16 99 1008.5
20260509164148 51 181 1.0 1.0 0.00 0.16 0.16 99 1008.4
20260509163646 51 182 1.0 1.0 0.00 0.16 0.16 99 1008.4
20260509163142 50 178 0.0 1.0 0.00 0.16 0.16 99 1008.5
20260509162639 50 165 0.0 0.0 0.00 0.16 0.16 99 1008.4
20260509162135 50 161 0.0 1.0 0.00 0.16 0.16 99 1008.5
20260509161631 50 161 0.0 0.0 0.00 0.16 0.16 99 1008.5
20260509161126 50 172 0.0 0.0 0.00 0.16 0.16 99 1008.4
20260509160623 50 181 0.0 0.0 0.00 0.16 0.16 99 1008.4
20260509160118 50 164 1.0 1.0 0.00 0.16 0.16 99 1008.7
20260509155615 49 164 1.0 1.0 0.05 0.16 0.16 99 1008.6
20260509155111 49 165 0.0 1.0 0.05 0.16 0.16 99 1008.7
20260509154606 49 162 0.0 0.0 0.00 0.15 0.15 99 1008.8
20260509154104 49 164 0.0 0.0 0.00 0.15 0.15 99 1009.2
20260509153601 49 186 0.0 0.0 0.00 0.15 0.15 99 1009.1
20260509153058 48 214 2.0 2.0 0.00 0.15 0.15 99 1009.2
20260509152554 48 128 0.0 1.0 0.07 0.15 0.15 99 1009.1
20260509152051 48 120 0.0 0.0 0.07 0.15 0.15 99 1009.1
20260509151547 48 120 0.0 0.0 0.00 0.14 0.14 99 1009.2
20260509151045 48 120 0.0 0.0 0.00 0.14 0.14 99 1009.1
20260509150542 48 120 0.0 1.0 0.00 0.14 0.14 99 1009.0
20260509150035 48 120 0.0 0.0 0.00 0.14 0.14 99 1009.3
20260509145530 48 120 0.0 0.0 0.00 0.14 0.14 99 1009.4
20260509145025 48 120 1.0 1.0 0.00 0.14 0.14 99 1009.2
20260509144523 47 119 1.0 1.0 0.05 0.14 0.14 99 1009.1
20260509144020 47 125 0.0 1.0 0.05 0.14 0.14 99 1009.2
20260509143517 48 137 0.0 1.0 0.00 0.13 0.13 99 1009.0
20260509143015 47 137 0.0 0.0 0.00 0.13 0.13 99 1009.0
20260509142510 47 138 2.0 2.0 0.00 0.13 0.13 99 1009.2
20260509142006 47 126 1.0 1.0 0.00 0.13 0.13 99 1009.0
20260509141503 47 126 1.0 1.0 0.07 0.13 0.13 99 1009.1
20260509140959 47 126 1.0 1.0 0.07 0.13 0.13 99 1009.0
20260509140455 47 126 1.0 1.0 0.00 0.12 0.12 99 1008.9
20260509135954 46 125 1.0 1.0 0.00 0.12 0.12 99 1008.9
20260509135451 46 126 1.0 1.0 0.00 0.12 0.12 99 1009.0
20260509134948 46 128 1.0 1.0 0.07 0.12 0.12 99 1009.0
20260509134446 46 120 1.0 1.0 0.07 0.12 0.12 99 1009.0
20260509133943 46 115 1.0 1.0 0.07 0.12 0.12 99 1009.1
20260509133439 46 122 1.0 2.0 0.00 0.11 0.11 99 1009.2
20260509132937 46 117 0.0 1.0 0.00 0.11 0.11 99 1009.2
20260509132435 46 116 2.0 2.0 0.00 0.11 0.11 99 1009.2
20260509131932 46 135 1.0 1.0 0.00 0.11 0.11 99 1009.4
20260509131429 46 116 2.0 2.0 0.05 0.11 0.11 99 1009.2
20260509130926 46 319 0.0 0.0 0.05 0.11 0.11 99 1009.5
20260509130421 46 99 1.0 1.0 0.00 0.10 0.10 99 1009.3
20260509125919 46 128 1.0 1.0 0.00 0.10 0.10 99 1009.6
20260509125415 46 103 0.0 1.0 0.00 0.10 0.10 99 1009.4
20260509124911 46 111 2.0 2.0 0.00 0.10 0.10 99 1009.2
20260509124408 46 104 2.0 2.0 0.07 0.10 0.10 99 1009.3
20260509123906 47 164 1.0 1.0 0.07 0.10 0.10 99 1009.5
20260509123403 47 158 0.0 0.0 0.00 0.09 0.09 99 1009.1
20260509122858 47 163 0.0 0.0 0.00 0.09 0.09 99 1009.1
20260509122355 46 129 0.0 0.0 0.00 0.09 0.09 99 1009.0
20260509121852 46 129 1.0 1.0 0.00 0.09 0.09 99 1009.0
20260509121350 46 128 0.0 0.0 0.00 0.09 0.09 99 1009.0
20260509120848 46 129 0.0 1.0 0.00 0.09 0.09 99 1009.0
20260509120345 46 124 1.0 1.0 0.00 0.09 0.09 99 1009.0
20260509115843 46 125 1.0 1.0 0.00 0.09 0.09 99 1008.9
20260509115340 46 124 1.0 1.0 0.00 0.09 0.09 99 1009.1
20260509114838 46 125 1.0 1.0 0.00 0.09 0.09 99 1008.9
20260509114336 46 134 1.0 1.0 0.00 0.09 0.09 99 1009.1
20260509113835 46 131 1.0 2.0 0.00 0.09 0.09 99 1009.0
20260509113332 46 174 1.0 1.0 0.05 0.09 0.09 99 1009.0
20260509112828 46 174 1.0 1.0 0.05 0.09 0.09 99 1009.1
20260509112326 46 174 0.0 1.0 0.00 0.08 0.08 99 1009.2
20260509111823 46 174 1.0 1.0 0.00 0.08 0.08 99 1009.1
20260509111320 46 174 1.0 2.0 0.00 0.08 0.08 99 1009.1
20260509110818 46 174 1.0 1.0 0.00 0.08 0.08 99 1009.2
20260509110313 46 174 1.0 1.0 0.00 0.08 0.08 99 1009.3
20260509105812 46 174 1.0 1.0 0.00 0.08 0.08 99 1009.4
20260509105309 46 174 1.0 1.0 0.00 0.08 0.08 99 1009.3
20260509104806 46 174 0.0 0.0 0.00 0.08 0.08 99 1009.3
20260509104303 46 174 1.0 1.0 0.07 0.08 0.08 99 1009.2
20260509103801 46 174 0.0 1.0 0.07 0.08 0.08 99 1009.3
20260509103257 45 174 0.0 0.0 0.00 0.07 0.07 99 1009.0
20260509102756 45 174 0.0 1.0 0.00 0.07 0.07 99 1008.9
20260509102253 45 173 0.0 1.0 0.00 0.07 0.07 99 1008.9
20260509101749 45 173 1.0 1.0 0.00 0.07 0.07 99 1009.1
20260509101245 45 173 0.0 1.0 0.00 0.07 0.07 99 1009.0
20260509100743 45 173 1.0 1.0 0.00 0.07 0.07 99 1008.8
20260509100240 45 173 0.0 0.0 0.00 0.07 0.07 99 1008.8
20260509095736 45 173 0.0 0.0 0.00 0.07 0.07 99 1009.0
20260509095234 45 173 0.0 1.0 0.00 0.07 0.07 99 1009.2
20260509094731 45 173 0.0 0.0 0.00 0.07 0.07 99 1009.2
20260509094228 45 173 0.0 1.0 0.00 0.07 0.07 99 1009.1
20260509093726 45 173 0.0 0.0 0.00 0.07 0.07 99 1009.4
20260509093222 45 173 0.0 0.0 0.00 0.07 0.07 99 1009.1
20260509092721 45 173 0.0 0.0 0.00 0.07 0.07 99 1009.3
20260509092219 46 173 0.0 0.0 0.00 0.07 0.07 99 1009.2
20260509091716 45 173 0.0 0.0 0.00 0.07 0.07 99 1009.1
20260509091212 45 174 0.0 0.0 0.00 0.07 0.07 99 1009.5
20260509090710 46 174 0.0 0.0 0.00 0.07 0.07 99 1009.5
20260509090207 45 174 0.0 0.0 0.00 0.07 0.07 99 1009.5
20260509085705 45 174 0.0 0.0 0.00 0.07 0.07 99 1009.5
20260509085201 45 174 0.0 0.0 0.00 0.07 0.07 99 1009.6
20260509084658 45 174 0.0 0.0 0.00 0.07 0.07 99 1009.5
20260509084155 45 174 0.0 0.0 0.00 0.07 0.07 99 1009.3
20260509083653 45 174 0.0 1.0 0.00 0.07 0.07 99 1009.4
20260509083149 46 174 0.0 0.0 0.00 0.07 0.07 99 1009.6
20260509082646 46 174 0.0 0.0 0.00 0.07 0.07 99 1009.5
20260509082142 46 174 0.0 1.0 0.00 0.07 0.07 99 1009.4
20260509081640 46 174 1.0 1.0 0.00 0.07 0.07 99 1009.7
20260509081137 46 174 1.0 1.0 0.00 0.07 0.07 99 1009.7
20260509080635 46 174 0.0 0.0 0.00 0.07 0.07 99 1009.8
20260509080133 46 174 0.0 1.0 0.00 0.07 0.07 99 1009.8
20260509075631 46 174 0.0 0.0 0.00 0.07 0.07 99 1009.6
20260509075128 46 174 0.0 0.0 0.00 0.07 0.07 99 1009.8
20260509074625 46 174 0.0 0.0 0.00 0.07 0.07 99 1009.3
20260509074121 46 174 0.0 0.0 0.00 0.07 0.07 99 1009.2
20260509073618 46 174 0.0 0.0 0.00 0.07 0.07 99 1009.3
20260509073114 46 174 1.0 1.0 0.00 0.07 0.07 99 1009.3
20260509072611 46 174 0.0 0.0 0.00 0.07 0.07 99 1009.3
20260509072108 46 174 0.0 0.0 0.00 0.07 0.07 99 1008.9
20260509071604 46 174 0.0 1.0 0.00 0.07 0.07 99 1009.3
20260509071102 46 174 1.0 1.0 0.00 0.07 0.07 99 1009.4
20260509070559 46 174 0.0 1.0 0.00 0.07 0.07 99 1009.6
20260509070055 46 174 1.0 1.0 0.05 0.07 0.07 99 1009.6
20260509065550 46 174 1.0 1.0 0.05 0.07 0.07 99 1009.8
20260509065047 46 174 0.0 0.0 0.00 0.06 0.06 99 1009.8
20260509064545 46 174 0.0 0.0 0.07 0.06 0.06 99 1009.8
20260509064043 46 174 0.0 1.0 0.12 0.06 0.06 98 1010.1
20260509063538 46 174 0.0 1.0 0.12 0.05 0.05 98 1009.8
20260509063036 46 174 1.0 1.0 0.12 0.04 0.04 98 1009.9
20260509062532 46 174 1.0 1.0 0.12 0.03 0.03 97 1009.8
20260509062030 46 211 1.0 1.0 0.12 0.03 0.03 97 1009.9
20260509061527 46 196 0.0 1.0 0.12 0.02 0.02 96 1010.1
20260509061024 46 204 0.0 0.0 0.05 0.01 0.01 95 1010.2
20260509060521 46 159 1.0 2.0 0.00 0.00 0.00 95 1009.8
20260509060017 46 159 1.0 2.0 0.00 0.00 0.00 94 1009.9
20260509055512 46 159 0.0 1.0 0.00 0.00 0.00 94 1010.2
20260509055009 46 159 1.0 1.0 0.00 0.00 0.00 95 1010.1
20260509054506 46 159 0.0 1.0 0.00 0.00 0.00 94 1010.1
20260509054004 46 159 0.0 0.0 0.00 0.00 0.00 93 1009.8
20260509053502 46 159 0.0 0.0 0.00 0.00 0.00 93 1009.8
20260509052959 46 159 0.0 0.0 0.00 0.00 0.00 92 1009.6
20260509052456 46 159 1.0 1.0 0.00 0.00 0.00 91 1009.6
20260509051954 46 159 0.0 0.0 0.00 0.00 0.00 90 1009.7
20260509051452 46 159 0.0 0.0 0.00 0.00 0.00 91 1009.9
20260509050948 45 159 1.0 1.0 0.00 0.00 0.00 91 1009.9
20260509050445 45 159 1.0 1.0 0.00 0.00 0.00 91 1009.8
20260509045942 45 159 0.0 1.0 0.00 0.00 0.00 90 1009.9
20260509045439 45 159 0.0 1.0 0.00 0.00 0.00 90 1010.1
20260509044936 46 159 1.0 1.0 0.00 0.00 0.00 90 1010.2
20260509044434 45 159 0.0 0.0 0.00 0.00 0.00 90 1010.1
20260509043931 45 159 0.0 0.0 0.00 0.00 0.00 91 1010.3
20260509043426 45 159 1.0 1.0 0.00 0.00 0.00 91 1010.3
20260509042922 46 159 0.0 1.0 0.00 0.00 0.00 90 1010.3
20260509042420 45 159 1.0 1.0 0.00 0.00 0.00 90 1010.3
20260509041915 45 159 1.0 1.0 0.00 0.00 0.00 90 1010.2
20260509041412 45 159 0.0 1.0 0.00 0.00 0.00 90 1010.4
20260509040910 45 159 1.0 1.0 0.00 0.00 0.00 90 1009.9
20260509040408 45 159 0.0 1.0 0.00 0.00 0.00 90 1010.2
20260509035905 45 159 1.0 1.0 0.00 0.08 0.08 90 1010.4
20260509035402 44 159 1.0 1.0 0.00 0.08 0.08 90 1010.3
20260509034858 44 159 1.0 1.0 0.00 0.08 0.08 90 1010.1
20260509034356 44 159 1.0 1.0 0.00 0.08 0.08 91 1010.3
20260509033853 44 159 1.0 1.0 0.00 0.08 0.08 92 1010.3